Year,Month,Day,Hour,Minute,Value (Times are PST for temperature in C)
2010,07,14,00,00,14.50
2010,07,14,00,01,14.40
2010,07,14,00,02,14.40
2010,07,14,00,03,14.40
2010,07,14,00,04,14.30
2010,07,14,00,05,14.30
2010,07,14,00,06,14.30
2010,07,14,00,07,14.30
2010,07,14,00,08,14.30
2010,07,14,00,09,14.30
2010,07,14,00,10,14.30
2010,07,14,00,11,14.30
2010,07,14,00,12,14.30
2010,07,14,00,13,14.30
2010,07,14,00,14,14.30
2010,07,14,00,15,14.30
2010,07,14,00,16,14.30
2010,07,14,00,17,14.30
2010,07,14,00,18,14.20
2010,07,14,00,19,14.20
2010,07,14,00,20,14.20
2010,07,14,00,21,14.20
2010,07,14,00,22,14.20
2010,07,14,00,23,14.10
2010,07,14,00,24,14.10
2010,07,14,00,25,14.10
2010,07,14,00,26,14.10
2010,07,14,00,27,14.10
2010,07,14,00,28,14.00
2010,07,14,00,29,14.00
2010,07,14,00,30,13.90
2010,07,14,00,31,13.90
2010,07,14,00,32,13.90
2010,07,14,00,33,13.90
2010,07,14,00,34,13.90
2010,07,14,00,35,13.90
2010,07,14,00,36,13.90
2010,07,14,00,37,13.90
2010,07,14,00,38,13.80
2010,07,14,00,39,13.80
2010,07,14,00,40,13.80
2010,07,14,00,41,13.80
2010,07,14,00,42,13.80
2010,07,14,00,43,13.80
2010,07,14,00,44,13.70
2010,07,14,00,45,13.70
2010,07,14,00,46,13.70
2010,07,14,00,47,13.70
2010,07,14,00,48,13.70
2010,07,14,00,49,13.70
2010,07,14,00,50,13.70
2010,07,14,00,51,13.60
2010,07,14,00,52,13.60
2010,07,14,00,53,13.60
2010,07,14,00,54,13.60
2010,07,14,00,55,13.50
2010,07,14,00,56,13.50
2010,07,14,00,57,13.50
2010,07,14,00,58,13.40
2010,07,14,00,59,13.40
2010,07,14,01,00,13.40
2010,07,14,01,01,13.40
2010,07,14,01,02,13.40
2010,07,14,01,03,13.40
2010,07,14,01,04,13.30
2010,07,14,01,05,13.30
2010,07,14,01,06,13.30
2010,07,14,01,07,13.30
2010,07,14,01,08,13.30
2010,07,14,01,09,13.30
2010,07,14,01,10,13.30
2010,07,14,01,11,13.30
2010,07,14,01,12,13.30
2010,07,14,01,13,13.30
2010,07,14,01,14,13.30
2010,07,14,01,15,13.30
2010,07,14,01,16,13.20
2010,07,14,01,17,13.20
2010,07,14,01,18,13.20
2010,07,14,01,19,13.20
2010,07,14,01,20,13.20
2010,07,14,01,21,13.20
2010,07,14,01,22,13.20
2010,07,14,01,23,13.20
2010,07,14,01,24,13.20
2010,07,14,01,25,13.20
2010,07,14,01,26,13.20
2010,07,14,01,27,13.20
2010,07,14,01,28,13.20
2010,07,14,01,29,13.20
2010,07,14,01,30,13.20
2010,07,14,01,31,13.20
2010,07,14,01,32,13.20
2010,07,14,01,33,13.20
2010,07,14,01,34,13.20
2010,07,14,01,35,13.20
2010,07,14,01,36,13.20
2010,07,14,01,37,13.20
2010,07,14,01,38,13.20
2010,07,14,01,39,13.20
2010,07,14,01,40,13.20
2010,07,14,01,41,13.20
2010,07,14,01,42,13.20
2010,07,14,01,43,13.20
2010,07,14,01,44,13.20
2010,07,14,01,45,13.20
2010,07,14,01,46,13.20
2010,07,14,01,47,13.20
2010,07,14,01,48,13.20
2010,07,14,01,49,13.20
2010,07,14,01,50,13.20
2010,07,14,01,51,13.20
2010,07,14,01,52,13.20
2010,07,14,01,53,13.20
2010,07,14,01,54,13.20
2010,07,14,01,55,13.20
2010,07,14,01,56,13.20
2010,07,14,01,57,13.20
2010,07,14,01,58,13.20
2010,07,14,01,59,13.20
2010,07,14,02,00,13.20
2010,07,14,02,01,13.20
2010,07,14,02,02,13.20
2010,07,14,02,03,13.20
2010,07,14,02,04,13.20
2010,07,14,02,05,13.20
2010,07,14,02,06,13.20
2010,07,14,02,07,13.20
2010,07,14,02,08,13.10
2010,07,14,02,09,13.10
2010,07,14,02,10,13.10
2010,07,14,02,11,13.10
2010,07,14,02,12,13.10
2010,07,14,02,13,13.00
2010,07,14,02,14,13.00
2010,07,14,02,15,13.00
2010,07,14,02,16,13.00
2010,07,14,02,17,12.90
2010,07,14,02,18,12.90
2010,07,14,02,19,12.90
2010,07,14,02,20,12.90
2010,07,14,02,21,12.80
2010,07,14,02,22,12.80
2010,07,14,02,23,12.80
2010,07,14,02,24,12.80
2010,07,14,02,25,12.80
2010,07,14,02,26,12.80
2010,07,14,02,27,12.80
2010,07,14,02,28,12.80
2010,07,14,02,29,12.80
2010,07,14,02,30,12.80
2010,07,14,02,31,12.80
2010,07,14,02,32,12.80
2010,07,14,02,33,12.80
2010,07,14,02,34,12.70
2010,07,14,02,35,12.70
2010,07,14,02,36,12.70
2010,07,14,02,37,12.70
2010,07,14,02,38,12.70
2010,07,14,02,39,12.70
2010,07,14,02,40,12.70
2010,07,14,02,41,12.70
2010,07,14,02,42,12.60
2010,07,14,02,43,12.60
2010,07,14,02,44,12.60
2010,07,14,02,45,12.60
2010,07,14,02,46,12.60
2010,07,14,02,47,12.60
2010,07,14,02,48,12.60
2010,07,14,02,49,12.60
2010,07,14,02,50,12.60
2010,07,14,02,51,12.60
2010,07,14,02,52,12.60
2010,07,14,02,53,12.60
2010,07,14,02,54,12.60
2010,07,14,02,55,12.60
2010,07,14,02,56,12.60
2010,07,14,02,57,12.60
2010,07,14,02,58,12.60
2010,07,14,02,59,12.60
2010,07,14,03,00,12.60
2010,07,14,03,01,12.60
2010,07,14,03,02,12.60
2010,07,14,03,03,12.60
2010,07,14,03,04,12.50
2010,07,14,03,05,12.60
2010,07,14,03,06,12.50
2010,07,14,03,07,12.60
2010,07,14,03,08,12.50
2010,07,14,03,09,12.50
2010,07,14,03,10,12.50
2010,07,14,03,11,12.50
2010,07,14,03,12,12.50
2010,07,14,03,13,12.40
2010,07,14,03,14,12.40
2010,07,14,03,15,12.40
2010,07,14,03,16,12.40
2010,07,14,03,17,12.40
2010,07,14,03,18,12.40
2010,07,14,03,19,12.30
2010,07,14,03,20,12.30
2010,07,14,03,21,12.30
2010,07,14,03,22,12.30
2010,07,14,03,23,12.30
2010,07,14,03,24,12.30
2010,07,14,03,25,12.30
2010,07,14,03,26,12.30
2010,07,14,03,27,12.20
2010,07,14,03,28,12.20
2010,07,14,03,29,12.20
2010,07,14,03,30,12.10
2010,07,14,03,31,12.10
2010,07,14,03,32,12.10
2010,07,14,03,33,12.10
2010,07,14,03,34,12.00
2010,07,14,03,35,12.00
2010,07,14,03,36,11.90
2010,07,14,03,37,11.90
2010,07,14,03,38,11.90
2010,07,14,03,39,11.90
2010,07,14,03,40,11.90
2010,07,14,03,41,11.80
2010,07,14,03,42,11.80
2010,07,14,03,43,11.80
2010,07,14,03,44,11.70
2010,07,14,03,45,11.70
2010,07,14,03,46,11.60
2010,07,14,03,47,11.60
2010,07,14,03,48,11.60
2010,07,14,03,49,11.50
2010,07,14,03,50,11.50
2010,07,14,03,51,11.40
2010,07,14,03,52,11.40
2010,07,14,03,53,11.40
2010,07,14,03,54,11.40
2010,07,14,03,55,11.30
2010,07,14,03,56,11.30
2010,07,14,03,57,11.30
2010,07,14,03,58,11.40
2010,07,14,03,59,11.40
2010,07,14,04,00,11.40
2010,07,14,04,01,11.40
2010,07,14,04,02,11.40
2010,07,14,04,03,11.40
2010,07,14,04,04,11.50
2010,07,14,04,05,11.50
2010,07,14,04,06,11.50
2010,07,14,04,07,11.60
2010,07,14,04,08,11.60
2010,07,14,04,09,11.60
2010,07,14,04,10,11.60
2010,07,14,04,11,11.60
2010,07,14,04,12,11.60
2010,07,14,04,13,11.60
2010,07,14,04,14,11.50
2010,07,14,04,15,11.50
2010,07,14,04,16,11.50
2010,07,14,04,17,11.40
2010,07,14,04,18,11.40
2010,07,14,04,19,11.40
2010,07,14,04,20,11.40
2010,07,14,04,21,11.40
2010,07,14,04,22,11.30
2010,07,14,04,23,11.30
2010,07,14,04,24,11.30
2010,07,14,04,25,11.30
2010,07,14,04,26,11.30
2010,07,14,04,27,11.30
2010,07,14,04,28,11.30
2010,07,14,04,29,11.30
2010,07,14,04,30,11.30
2010,07,14,04,31,11.30
2010,07,14,04,32,11.20
2010,07,14,04,33,11.20
2010,07,14,04,34,11.20
2010,07,14,04,35,11.20
2010,07,14,04,36,11.20
2010,07,14,04,37,11.20
2010,07,14,04,38,11.20
2010,07,14,04,39,11.20
2010,07,14,04,40,11.20
2010,07,14,04,41,11.20
2010,07,14,04,42,11.20
2010,07,14,04,43,11.10
2010,07,14,04,44,11.10
2010,07,14,04,45,11.10
2010,07,14,04,46,11.10
2010,07,14,04,47,11.10
2010,07,14,04,48,11.10
2010,07,14,04,49,11.10
2010,07,14,04,50,11.10
2010,07,14,04,51,11.10
2010,07,14,04,52,11.10
2010,07,14,04,53,11.10
2010,07,14,04,54,11.10
2010,07,14,04,55,11.10
2010,07,14,04,56,11.10
2010,07,14,04,57,11.10
2010,07,14,04,58,11.10
2010,07,14,04,59,11.10
2010,07,14,05,00,11.00
2010,07,14,05,01,11.00
2010,07,14,05,02,11.00
2010,07,14,05,03,11.00
2010,07,14,05,04,11.00
2010,07,14,05,05,11.00
2010,07,14,05,06,11.00
2010,07,14,05,07,11.00
2010,07,14,05,08,11.00
2010,07,14,05,09,11.00
2010,07,14,05,10,11.00
2010,07,14,05,11,11.00
2010,07,14,05,12,11.00
2010,07,14,05,13,11.00
2010,07,14,05,14,10.90
2010,07,14,05,15,10.90
2010,07,14,05,16,10.90
2010,07,14,05,17,10.90
2010,07,14,05,18,10.90
2010,07,14,05,19,10.90
2010,07,14,05,20,10.90
2010,07,14,05,21,10.90
2010,07,14,05,22,10.90
2010,07,14,05,23,10.90
2010,07,14,05,24,10.90
2010,07,14,05,25,10.90
2010,07,14,05,26,10.80
2010,07,14,05,27,10.80
2010,07,14,05,28,10.80
2010,07,14,05,29,10.80
2010,07,14,05,30,10.80
2010,07,14,05,31,10.80
2010,07,14,05,32,10.80
2010,07,14,05,33,10.80
2010,07,14,05,34,10.80
2010,07,14,05,35,10.80
2010,07,14,05,36,10.80
2010,07,14,05,37,10.70
2010,07,14,05,38,10.70
2010,07,14,05,39,10.70
2010,07,14,05,40,10.70
2010,07,14,05,41,10.70
2010,07,14,05,42,10.70
2010,07,14,05,43,10.70
2010,07,14,05,44,10.60
2010,07,14,05,45,10.60
2010,07,14,05,46,10.60
2010,07,14,05,47,10.60
2010,07,14,05,48,10.60
2010,07,14,05,49,10.70
2010,07,14,05,50,10.60
2010,07,14,05,51,10.70
2010,07,14,05,52,10.70
2010,07,14,05,53,10.70
2010,07,14,05,54,10.60
2010,07,14,05,55,10.60
2010,07,14,05,56,10.60
2010,07,14,05,57,10.60
2010,07,14,05,58,10.60
2010,07,14,05,59,10.60
2010,07,14,06,00,10.60
2010,07,14,06,01,10.60
2010,07,14,06,02,10.60
2010,07,14,06,03,10.60
2010,07,14,06,04,10.60
2010,07,14,06,05,10.60
2010,07,14,06,06,10.60
2010,07,14,06,07,10.60
2010,07,14,06,08,10.60
2010,07,14,06,09,10.60
2010,07,14,06,10,10.60
2010,07,14,06,11,10.60
2010,07,14,06,12,10.60
2010,07,14,06,13,10.60
2010,07,14,06,14,10.60
2010,07,14,06,15,10.60
2010,07,14,06,16,10.60
2010,07,14,06,17,10.60
2010,07,14,06,18,10.60
2010,07,14,06,19,10.60
2010,07,14,06,20,10.60
2010,07,14,06,21,10.60
2010,07,14,06,22,10.60
2010,07,14,06,23,10.60
2010,07,14,06,24,10.60
2010,07,14,06,25,10.60
2010,07,14,06,26,10.70
2010,07,14,06,27,10.70
2010,07,14,06,28,10.70
2010,07,14,06,29,10.70
2010,07,14,06,30,10.70
2010,07,14,06,31,10.80
2010,07,14,06,32,10.80
2010,07,14,06,33,10.80
2010,07,14,06,34,10.80
2010,07,14,06,35,10.80
2010,07,14,06,36,10.80
2010,07,14,06,37,10.80
2010,07,14,06,38,10.90
2010,07,14,06,39,10.90
2010,07,14,06,40,10.90
2010,07,14,06,41,10.90
2010,07,14,06,42,11.00
2010,07,14,06,43,11.00
2010,07,14,06,44,11.00
2010,07,14,06,45,11.00
2010,07,14,06,46,11.00
2010,07,14,06,47,11.00
2010,07,14,06,48,11.00
2010,07,14,06,49,11.00
2010,07,14,06,50,11.00
2010,07,14,06,51,11.10
2010,07,14,06,52,11.10
2010,07,14,06,53,11.10
2010,07,14,06,54,11.10
2010,07,14,06,55,11.10
2010,07,14,06,56,11.20
2010,07,14,06,57,11.20
2010,07,14,06,58,11.20
2010,07,14,06,59,11.20
2010,07,14,07,00,11.30
2010,07,14,07,01,11.30
2010,07,14,07,02,11.30
2010,07,14,07,03,11.30
2010,07,14,07,04,11.30
2010,07,14,07,05,11.40
2010,07,14,07,06,11.40
2010,07,14,07,07,11.40
2010,07,14,07,08,11.40
2010,07,14,07,09,11.40
2010,07,14,07,10,11.50
2010,07,14,07,11,11.50
2010,07,14,07,12,11.60
2010,07,14,07,13,11.60
2010,07,14,07,14,11.60
2010,07,14,07,15,11.60
2010,07,14,07,16,11.70
2010,07,14,07,17,11.70
2010,07,14,07,18,11.70
2010,07,14,07,19,11.70
2010,07,14,07,20,11.70
2010,07,14,07,21,11.70
2010,07,14,07,22,11.80
2010,07,14,07,23,11.80
2010,07,14,07,24,11.80
2010,07,14,07,25,11.90
2010,07,14,07,26,11.90
2010,07,14,07,27,11.90
2010,07,14,07,28,12.00
2010,07,14,07,29,12.00
2010,07,14,07,30,12.10
2010,07,14,07,31,12.10
2010,07,14,07,32,12.10
2010,07,14,07,33,12.10
2010,07,14,07,34,12.10
2010,07,14,07,35,12.10
2010,07,14,07,36,12.20
2010,07,14,07,37,12.20
2010,07,14,07,38,12.20
2010,07,14,07,39,12.20
2010,07,14,07,40,12.30
2010,07,14,07,41,12.30
2010,07,14,07,42,12.30
2010,07,14,07,43,12.40
2010,07,14,07,44,12.40
2010,07,14,07,45,12.40
2010,07,14,07,46,12.50
2010,07,14,07,47,12.50
2010,07,14,07,48,12.60
2010,07,14,07,49,12.60
2010,07,14,07,50,12.60
2010,07,14,07,51,12.60
2010,07,14,07,52,12.70
2010,07,14,07,53,12.70
2010,07,14,07,54,12.80
2010,07,14,07,55,12.80
2010,07,14,07,56,12.80
2010,07,14,07,57,12.90
2010,07,14,07,58,12.90
2010,07,14,07,59,13.00
2010,07,14,08,00,13.00
2010,07,14,08,01,13.10
2010,07,14,08,02,13.10
2010,07,14,08,03,13.20
2010,07,14,08,04,13.20
2010,07,14,08,05,13.20
2010,07,14,08,06,13.30
2010,07,14,08,07,13.30
2010,07,14,08,08,13.40
2010,07,14,08,09,13.40
2010,07,14,08,10,13.40
2010,07,14,08,11,13.50
2010,07,14,08,12,13.60
2010,07,14,08,13,13.70
2010,07,14,08,14,13.70
2010,07,14,08,15,13.80
2010,07,14,08,16,13.90
2010,07,14,08,17,14.00
2010,07,14,08,18,14.10
2010,07,14,08,19,14.10
2010,07,14,08,20,14.20
2010,07,14,08,21,14.30
2010,07,14,08,22,14.40
2010,07,14,08,23,14.40
2010,07,14,08,24,14.50
2010,07,14,08,25,14.60
2010,07,14,08,26,14.60
2010,07,14,08,27,14.70
2010,07,14,08,28,14.80
2010,07,14,08,29,14.90
2010,07,14,08,30,15.00
2010,07,14,08,31,15.00
2010,07,14,08,32,15.00
2010,07,14,08,33,15.10
2010,07,14,08,34,15.20
2010,07,14,08,35,15.30
2010,07,14,08,36,15.40
2010,07,14,08,37,15.40
2010,07,14,08,38,15.50
2010,07,14,08,39,15.50
2010,07,14,08,40,15.60
2010,07,14,08,41,15.70
2010,07,14,08,42,15.80
2010,07,14,08,43,15.80
2010,07,14,08,44,15.90
2010,07,14,08,45,15.90
2010,07,14,08,46,16.00
2010,07,14,08,47,15.90
2010,07,14,08,48,15.90
2010,07,14,08,49,15.90
2010,07,14,08,50,16.00
2010,07,14,08,51,16.00
2010,07,14,08,52,16.10
2010,07,14,08,53,16.10
2010,07,14,08,54,16.10
2010,07,14,08,55,16.10
2010,07,14,08,56,16.10
2010,07,14,08,57,16.10
2010,07,14,08,58,16.10
2010,07,14,08,59,16.10
2010,07,14,09,00,16.20
2010,07,14,09,01,16.20
2010,07,14,09,02,16.30
2010,07,14,09,03,16.30
2010,07,14,09,04,16.40
2010,07,14,09,05,16.40
2010,07,14,09,06,16.50
2010,07,14,09,07,16.50
2010,07,14,09,08,16.60
2010,07,14,09,09,16.60
2010,07,14,09,10,16.60
2010,07,14,09,11,16.60
2010,07,14,09,12,16.70
2010,07,14,09,13,16.70
2010,07,14,09,14,16.70
2010,07,14,09,15,16.70
2010,07,14,09,16,16.70
2010,07,14,09,17,16.70
2010,07,14,09,18,16.70
2010,07,14,09,19,16.70
2010,07,14,09,20,16.70
2010,07,14,09,21,16.70
2010,07,14,09,22,16.70
2010,07,14,09,23,16.70
2010,07,14,09,24,16.70
2010,07,14,09,25,16.70
2010,07,14,09,26,16.80
2010,07,14,09,27,16.80
2010,07,14,09,28,16.80
2010,07,14,09,29,16.80
2010,07,14,09,30,16.90
2010,07,14,09,31,16.90
2010,07,14,09,32,17.00
2010,07,14,09,33,17.10
2010,07,14,09,34,17.10
2010,07,14,09,35,17.10
2010,07,14,09,36,17.10
2010,07,14,09,37,17.20
2010,07,14,09,38,17.20
2010,07,14,09,39,17.20
2010,07,14,09,40,17.20
2010,07,14,09,41,17.30
2010,07,14,09,42,17.30
2010,07,14,09,43,17.40
2010,07,14,09,44,17.40
2010,07,14,09,45,17.40
2010,07,14,09,46,17.40
2010,07,14,09,47,17.50
2010,07,14,09,48,17.50
2010,07,14,09,49,17.60
2010,07,14,09,50,17.70
2010,07,14,09,51,17.80
2010,07,14,09,52,17.80
2010,07,14,09,53,17.90
2010,07,14,09,54,18.00
2010,07,14,09,55,18.00
2010,07,14,09,56,18.10
2010,07,14,09,57,18.20
2010,07,14,09,58,18.30
2010,07,14,09,59,18.40
2010,07,14,10,00,18.50
2010,07,14,10,01,18.60
2010,07,14,10,02,18.70
2010,07,14,10,03,18.80
2010,07,14,10,04,18.80
2010,07,14,10,05,18.80
2010,07,14,10,06,18.70
2010,07,14,10,07,18.70
2010,07,14,10,08,18.70
2010,07,14,10,09,18.80
2010,07,14,10,10,18.80
2010,07,14,10,11,18.80
2010,07,14,10,12,18.80
2010,07,14,10,13,18.80
2010,07,14,10,14,18.80
2010,07,14,10,15,18.80
2010,07,14,10,16,18.80
2010,07,14,10,17,18.80
2010,07,14,10,18,18.80
2010,07,14,10,19,18.90
2010,07,14,10,20,18.90
2010,07,14,10,21,19.00
2010,07,14,10,22,19.10
2010,07,14,10,23,19.20
2010,07,14,10,24,19.30
2010,07,14,10,25,19.30
2010,07,14,10,26,19.50
2010,07,14,10,27,19.50
2010,07,14,10,28,19.60
2010,07,14,10,29,19.60
2010,07,14,10,30,19.70
2010,07,14,10,31,19.70
2010,07,14,10,32,19.70
2010,07,14,10,33,19.80
2010,07,14,10,34,19.80
2010,07,14,10,35,19.80
2010,07,14,10,36,19.90
2010,07,14,10,37,19.90
2010,07,14,10,38,20.00
2010,07,14,10,39,20.00
2010,07,14,10,40,20.00
2010,07,14,10,41,20.00
2010,07,14,10,42,20.00
2010,07,14,10,43,20.00
2010,07,14,10,44,19.90
2010,07,14,10,45,19.90
2010,07,14,10,46,19.80
2010,07,14,10,47,19.80
2010,07,14,10,48,19.90
2010,07,14,10,49,19.90
2010,07,14,10,50,20.00
2010,07,14,10,51,20.10
2010,07,14,10,52,20.10
2010,07,14,10,53,20.20
2010,07,14,10,54,20.10
2010,07,14,10,55,20.10
2010,07,14,10,56,20.10
2010,07,14,10,57,20.20
2010,07,14,10,58,20.20
2010,07,14,10,59,20.30
2010,07,14,11,00,20.30
2010,07,14,11,01,20.40
2010,07,14,11,02,20.50
2010,07,14,11,03,20.60
2010,07,14,11,04,20.60
2010,07,14,11,05,20.70
2010,07,14,11,06,20.80
2010,07,14,11,07,20.80
2010,07,14,11,08,20.90
2010,07,14,11,09,20.90
2010,07,14,11,10,20.90
2010,07,14,11,11,20.90
2010,07,14,11,12,20.90
2010,07,14,11,13,21.00
2010,07,14,11,14,21.00
2010,07,14,11,15,21.10
2010,07,14,11,16,21.10
2010,07,14,11,17,21.20
2010,07,14,11,18,21.20
2010,07,14,11,19,21.10
2010,07,14,11,20,21.00
2010,07,14,11,21,20.90
2010,07,14,11,22,20.90
2010,07,14,11,23,20.80
2010,07,14,11,24,20.80
2010,07,14,11,25,20.80
2010,07,14,11,26,20.90
2010,07,14,11,27,20.90
2010,07,14,11,28,21.00
2010,07,14,11,29,21.00
2010,07,14,11,30,21.10
2010,07,14,11,31,21.20
2010,07,14,11,32,21.20
2010,07,14,11,33,21.30
2010,07,14,11,34,21.30
2010,07,14,11,35,21.30
2010,07,14,11,36,21.30
2010,07,14,11,37,21.30
2010,07,14,11,38,21.40
2010,07,14,11,39,21.40
2010,07,14,11,40,21.40
2010,07,14,11,41,21.40
2010,07,14,11,42,21.40
2010,07,14,11,43,21.40
2010,07,14,11,44,21.40
2010,07,14,11,45,21.40
2010,07,14,11,46,21.40
2010,07,14,11,47,21.40
2010,07,14,11,48,21.40
2010,07,14,11,49,21.40
2010,07,14,11,50,21.50
2010,07,14,11,51,21.50
2010,07,14,11,52,21.50
2010,07,14,11,53,21.50
2010,07,14,11,54,21.50
2010,07,14,11,55,21.50
2010,07,14,11,56,21.50
2010,07,14,11,57,21.50
2010,07,14,11,58,21.60
2010,07,14,11,59,21.60
2010,07,14,12,00,21.70
2010,07,14,12,01,21.70
2010,07,14,12,02,21.80
2010,07,14,12,03,21.80
2010,07,14,12,04,21.90
2010,07,14,12,05,21.90
2010,07,14,12,14,22.00
2010,07,14,12,15,22.00
2010,07,14,12,16,22.10
2010,07,14,12,17,22.10
2010,07,14,12,18,22.20
2010,07,14,12,19,22.20
2010,07,14,12,20,22.20
2010,07,14,12,21,22.30
2010,07,14,12,22,22.30
2010,07,14,12,23,22.30
2010,07,14,12,24,22.30
2010,07,14,12,25,22.30
2010,07,14,12,26,22.40
2010,07,14,12,27,22.40
2010,07,14,12,28,22.40
2010,07,14,12,29,22.40
2010,07,14,12,30,22.40
2010,07,14,12,31,22.40
2010,07,14,12,32,22.40
2010,07,14,12,33,22.40
2010,07,14,12,34,22.40
2010,07,14,12,35,22.40
2010,07,14,12,36,22.50
2010,07,14,12,37,22.60
2010,07,14,12,38,22.50
2010,07,14,12,39,22.50
2010,07,14,12,40,22.40
2010,07,14,12,41,22.40
2010,07,14,12,42,22.40
2010,07,14,12,43,22.40
2010,07,14,12,44,22.40
2010,07,14,12,45,22.30
2010,07,14,12,46,22.20
2010,07,14,12,47,22.20
2010,07,14,12,48,22.20
2010,07,14,12,49,22.20
2010,07,14,12,50,22.20
2010,07,14,12,51,22.20
2010,07,14,12,52,22.20
2010,07,14,12,53,22.20
2010,07,14,12,54,22.20
2010,07,14,12,55,22.20
2010,07,14,12,56,22.10
2010,07,14,12,57,22.10
2010,07,14,12,58,22.10
2010,07,14,12,59,22.10
2010,07,14,13,00,22.00
2010,07,14,13,01,22.00
2010,07,14,13,02,22.10
2010,07,14,13,03,22.10
2010,07,14,13,04,22.10
2010,07,14,13,05,22.10
2010,07,14,13,06,22.10
2010,07,14,13,07,22.20
2010,07,14,13,08,22.20
2010,07,14,13,09,22.40
2010,07,14,13,10,22.40
2010,07,14,13,11,22.40
2010,07,14,13,12,22.50
2010,07,14,13,13,22.60
2010,07,14,13,14,22.60
2010,07,14,13,15,22.70
2010,07,14,13,16,22.80
2010,07,14,13,17,22.80
2010,07,14,13,18,22.80
2010,07,14,13,19,22.90
2010,07,14,13,20,22.90
2010,07,14,13,21,22.90
2010,07,14,13,22,23.00
2010,07,14,13,23,23.00
2010,07,14,13,24,23.10
2010,07,14,13,25,23.10
2010,07,14,13,26,23.00
2010,07,14,13,27,23.00
2010,07,14,13,28,22.90
2010,07,14,13,29,22.90
2010,07,14,13,30,22.90
2010,07,14,13,31,23.00
2010,07,14,13,32,23.10
2010,07,14,13,33,23.10
2010,07,14,13,34,23.20
2010,07,14,13,35,23.20
2010,07,14,13,36,23.20
2010,07,14,13,37,23.10
2010,07,14,13,38,23.10
2010,07,14,13,39,23.00
2010,07,14,13,40,22.90
2010,07,14,13,41,22.80
2010,07,14,13,42,22.80
2010,07,14,13,43,22.80
2010,07,14,13,44,22.80
2010,07,14,13,45,22.70
2010,07,14,13,46,22.60
2010,07,14,13,47,22.60
2010,07,14,13,48,22.70
2010,07,14,13,49,22.70
2010,07,14,13,50,22.70
2010,07,14,13,51,22.80
2010,07,14,13,52,22.80
2010,07,14,13,53,22.90
2010,07,14,13,54,23.00
2010,07,14,13,55,23.10
2010,07,14,13,56,23.10
2010,07,14,13,57,23.10
2010,07,14,13,58,23.10
2010,07,14,13,59,23.10
2010,07,14,14,00,23.00
2010,07,14,14,01,23.00
2010,07,14,14,02,22.90
2010,07,14,14,03,23.00
2010,07,14,14,04,23.00
2010,07,14,14,05,23.00
2010,07,14,14,06,23.00
2010,07,14,14,07,23.10
2010,07,14,14,08,23.10
2010,07,14,14,09,23.10
2010,07,14,14,10,23.20
2010,07,14,14,11,23.20
2010,07,14,14,12,23.30
2010,07,14,14,13,23.30
2010,07,14,14,14,23.40
2010,07,14,14,15,23.40
2010,07,14,14,16,23.50
2010,07,14,14,17,23.50
2010,07,14,14,18,23.60
2010,07,14,14,19,23.60
2010,07,14,14,20,23.70
2010,07,14,14,21,23.70
2010,07,14,14,22,23.70
2010,07,14,14,23,23.60
2010,07,14,14,24,23.60
2010,07,14,14,25,23.60
2010,07,14,14,26,23.60
2010,07,14,14,27,23.60
2010,07,14,14,28,23.70
2010,07,14,14,29,23.70
2010,07,14,14,30,23.80
2010,07,14,14,31,23.80
2010,07,14,14,32,23.90
2010,07,14,14,33,23.90
2010,07,14,14,34,23.90
2010,07,14,14,35,23.90
2010,07,14,14,36,23.90
2010,07,14,14,37,23.90
2010,07,14,14,38,24.00
2010,07,14,14,39,24.00
2010,07,14,14,40,23.90
2010,07,14,14,41,23.80
2010,07,14,14,42,23.70
2010,07,14,14,43,23.60
2010,07,14,14,44,23.60
2010,07,14,14,45,23.60
2010,07,14,14,46,23.60
2010,07,14,14,47,23.60
2010,07,14,14,48,23.50
2010,07,14,14,49,23.60
2010,07,14,14,50,23.60
2010,07,14,14,51,23.60
2010,07,14,14,52,23.60
2010,07,14,14,53,23.60
2010,07,14,14,54,23.70
2010,07,14,14,55,23.70
2010,07,14,14,56,23.70
2010,07,14,14,57,23.70
2010,07,14,14,58,23.60
2010,07,14,14,59,23.50
2010,07,14,15,00,23.40
2010,07,14,15,01,23.40
2010,07,14,15,02,23.30
2010,07,14,15,03,23.30
2010,07,14,15,04,23.30
2010,07,14,15,05,23.40
2010,07,14,15,06,23.40
2010,07,14,15,07,23.40
2010,07,14,15,08,23.40
2010,07,14,15,09,23.50
2010,07,14,15,10,23.60
2010,07,14,15,11,23.70
2010,07,14,15,12,23.80
2010,07,14,15,13,23.80
2010,07,14,15,14,23.90
2010,07,14,15,15,23.90
2010,07,14,15,16,24.00
2010,07,14,15,17,24.00
2010,07,14,15,18,24.10
2010,07,14,15,19,24.10
2010,07,14,15,20,24.10
2010,07,14,15,21,24.20
2010,07,14,15,22,24.20
2010,07,14,15,23,24.20
2010,07,14,15,24,24.10
2010,07,14,15,25,24.00
2010,07,14,15,26,24.00
2010,07,14,15,27,24.00
2010,07,14,15,28,24.00
2010,07,14,15,29,23.90
2010,07,14,15,30,23.80
2010,07,14,15,31,23.70
2010,07,14,15,32,23.70
2010,07,14,15,33,23.70
2010,07,14,15,34,23.80
2010,07,14,15,35,23.90
2010,07,14,15,36,23.90
2010,07,14,15,37,24.00
2010,07,14,15,38,24.10
2010,07,14,15,39,24.20
2010,07,14,15,40,24.20
2010,07,14,15,41,24.20
2010,07,14,15,42,24.30
2010,07,14,15,43,24.30
2010,07,14,15,44,24.30
2010,07,14,15,45,24.30
2010,07,14,15,46,24.40
2010,07,14,15,47,24.40
2010,07,14,15,48,24.50
2010,07,14,15,49,24.50
2010,07,14,15,50,24.60
2010,07,14,15,51,24.60
2010,07,14,15,52,24.50
2010,07,14,15,53,24.40
2010,07,14,15,54,24.40
2010,07,14,15,55,24.30
2010,07,14,15,56,24.30
2010,07,14,15,57,24.30
2010,07,14,15,58,24.30
2010,07,14,15,59,24.30
2010,07,14,16,00,24.30
2010,07,14,16,01,24.30
2010,07,14,16,02,24.30
2010,07,14,16,03,24.20
2010,07,14,16,04,24.20
2010,07,14,16,05,24.10
2010,07,14,16,06,24.00
2010,07,14,16,07,23.90
2010,07,14,16,08,23.90
2010,07,14,16,09,23.80
2010,07,14,16,10,23.70
2010,07,14,16,11,23.60
2010,07,14,16,12,23.50
2010,07,14,16,13,23.60
2010,07,14,16,14,23.60
2010,07,14,16,15,23.70
2010,07,14,16,16,23.70
2010,07,14,16,17,23.80
2010,07,14,16,18,23.80
2010,07,14,16,19,23.90
2010,07,14,16,20,24.00
2010,07,14,16,21,24.00
2010,07,14,16,22,24.10
2010,07,14,16,23,24.20
2010,07,14,16,24,24.20
2010,07,14,16,25,24.20
2010,07,14,16,26,24.20
2010,07,14,16,27,24.20
2010,07,14,16,28,24.20
2010,07,14,16,29,24.20
2010,07,14,16,30,24.20
2010,07,14,16,31,24.20
2010,07,14,16,32,24.10
2010,07,14,16,33,24.00
2010,07,14,16,34,23.90
2010,07,14,16,35,23.80
2010,07,14,16,36,23.80
2010,07,14,16,37,23.90
2010,07,14,16,38,23.90
2010,07,14,16,39,24.00
2010,07,14,16,40,23.90
2010,07,14,16,41,23.90
2010,07,14,16,42,23.80
2010,07,14,16,43,23.70
2010,07,14,16,44,23.60
2010,07,14,16,45,23.50
2010,07,14,16,46,23.40
2010,07,14,16,47,23.40
2010,07,14,16,48,23.40
2010,07,14,16,49,23.40
2010,07,14,16,50,23.40
2010,07,14,16,51,23.40
2010,07,14,16,52,23.40
2010,07,14,16,53,23.50
2010,07,14,16,54,23.50
2010,07,14,16,55,23.60
2010,07,14,16,56,23.60
2010,07,14,16,57,23.70
2010,07,14,16,58,23.80
2010,07,14,16,59,23.80
2010,07,14,17,00,23.80
2010,07,14,17,01,23.70
2010,07,14,17,02,23.60
2010,07,14,17,03,23.50
2010,07,14,17,04,23.40
2010,07,14,17,05,23.40
2010,07,14,17,06,23.40
2010,07,14,17,07,23.40
2010,07,14,17,08,23.40
2010,07,14,17,09,23.40
2010,07,14,17,10,23.50
2010,07,14,17,11,23.60
2010,07,14,17,12,23.50
2010,07,14,17,13,23.50
2010,07,14,17,14,23.50
2010,07,14,17,15,23.60
2010,07,14,17,16,23.60
2010,07,14,17,17,23.60
2010,07,14,17,18,23.70
2010,07,14,17,19,23.70
2010,07,14,17,20,23.80
2010,07,14,17,21,23.80
2010,07,14,17,22,23.90
2010,07,14,17,23,24.00
2010,07,14,17,24,24.10
2010,07,14,17,25,24.10
2010,07,14,17,26,24.20
2010,07,14,17,27,24.20